Weather observations for the past three days for
Lehighton Jake Arner Memorial Airport
Imperial (Metric)
Date Time (edt) Wind (mph) Vis. (mi.) Weather Sky Cond. Temperature (ºF) Relative Humidity Wind Chill (°F) Heat Index (°F) Pressure Precipitation (in)
Air Dwpt 6 hour altimeter (in) sea level (mb) 1 hr 3 hr 6 hr
Max. Min.
03 03:15 Calm 4.00 Thunderstorm Rain SCT013 BKN055 OVC090 66.2 64.4 94% 30.08 0.0
03 02:55 Calm 10.00 Thunderstorm Heavy Rain SCT004 SCT046 OVC100 66.2 64.4 94% 30.1 0.0
03 02:35 Calm 7.00 Thunderstorm Light Rain SCT037 SCT060 OVC100 66.2 64.4 94% 30.05 0.0
03 02:15 Calm 7.00 Rain SCT080 BKN110 66.2 64.4 94% 30.07 0.0
03 01:55 Calm 7.00 Thunderstorm Rain SCT065 SCT075 BKN095 66.2 64.4 94% 30.08 0.0
03 01:35 Calm 5.00 Thunderstorm Rain SCT080 OVC100 66.2 64.4 94% 30.06 0.0
03 01:15 Calm 4.00 Thunderstorm Rain in Vicinity SCT065 OVC100 66.2 64.4 94% 30.08 0.0
03 00:55 Calm 5.00 Thunderstorm Rain OVC100 68 64.4 88% 30.1 0.0
03 00:35 Calm 4.00 Thunderstorm Rain SCT070 OVC110 68 64.4 88% 30.09 0.0
03 00:15 Calm 7.00 Thunderstorm Rain SCT043 BKN060 OVC110 68 66.2 94% 30.1 0.0
02 23:55 Calm 3.00 Thunderstorm Heavy Rain SCT007 BKN035 OVC047 68 66.2 94% 30.11 0.0
02 23:35 Calm 2.50 Thunderstorm Heavy Rain OVC007 68 66.2 94% 30.13 0.0
02 23:15 Calm 2.50 Thunderstorm Rain OVC005 68 66.2 94% 30.1 0.0
02 22:55 Calm 2.50 Thunderstorm Rain OVC005 68 66.2 94% 30.1 0.0
02 22:35 Calm 2.00 Thunderstorm Rain OVC005 68 64.4 88% 30.1 0.0
02 22:15 Calm 3.00 Light Rain OVC005 68 66.2 94% 30.09 0.0
02 21:55 Calm 3.00 Fog/Mist OVC005 68 66.2 94% 30.1 0.0
02 21:35 Calm 4.00 Fog/Mist OVC005 68 66.2 94% 30.1 0.0
02 21:15 Calm 7.00 Overcast OVC005 68 66.2 94% 30.08 0.0
02 20:55 Calm 7.00 Overcast OVC005 68 66.2 94% 30.08 0.0
02 20:35 Calm 7.00 Overcast OVC005 68 66.2 94% 30.1 0.0
02 20:15 Calm 7.00 Overcast OVC005 68 66.2 94% 30.09 0.0
02 19:55 Calm 7.00 Overcast OVC007 68 66.2 94% 30.08 0.0
02 19:35 Calm 7.00 Overcast OVC007 68 66.2 94% 30.07 0.0
02 19:15 Calm 5.00 Fog/Mist OVC007 68 68 100% 30.07 0.0
02 18:55 Calm 5.00 Fog/Mist OVC007 69.8 68 94% 30.08 0.0
02 18:35 Calm 5.00 Fog/Mist OVC007 69.8 68 94% 30.08 0.0
02 18:15 Calm 4.00 Fog/Mist OVC005 69.8 68 94% 30.09 0.0
02 17:55 Calm 3.00 Fog/Mist OVC005 69.8 68 94% 30.1 0.0
02 17:35 Calm 4.00 Fog/Mist OVC005 69.8 68 94% 30.09 0.0
02 17:15 Calm 4.00 Fog/Mist OVC005 69.8 68 94% 30.09 0.0
02 16:55 Calm 5.00 Fog/Mist OVC007 69.8 68 94% 30.09 0.0
02 16:35 Calm 5.00 Fog/Mist OVC007 69.8 68 94% 30.08 0.0
02 16:15 Calm 7.00 Overcast OVC007 69.8 68 94% 30.08 0.0
02 15:55 Calm 7.00 Overcast OVC007 69.8 68 94% 30.09 0.0
02 15:35 Calm 10.00 Overcast OVC007 69.8 68 94% 30.1 0.0
02 15:15 Calm 10.00 Overcast OVC007 69.8 68 94% 30.09 0.0
02 14:55 Calm 7.00 Overcast OVC007 69.8 68 94% 30.1 0.0
02 14:35 Calm 7.00 Overcast OVC007 69.8 68 94% 30.1 0.0
02 14:15 Calm 7.00 Overcast OVC007 69.8 68 94% 30.13 0.0
02 13:55 Calm 10.00 Overcast OVC007 69.8 68 94% 30.14 0.0
02 13:35 Calm 7.00 Overcast OVC007 69.8 68 94% 30.14 0.0
02 13:15 Calm 5.00 Light Rain OVC007 69.8 68 94% 30.15 0.0
02 12:55 Calm 7.00 Light Rain OVC007 68 68 100% 30.14 0.0
02 12:35 Calm 5.00 Rain OVC007 68 68 100% 30.15 0.0
02 12:15 Calm 7.00 Overcast OVC007 69.8 68 94% 30.14 0.0
02 11:55 Calm 5.00 Thunderstorm in Vicinity Fog/Mist OVC009 68 68 100% 30.15 0.0
02 11:35 Calm 7.00 Overcast OVC007 68 66.2 94% 30.15 0.0
02 11:15 Calm 5.00 Fog/Mist OVC007 68 68 100% 30.14 0.0
02 10:55 Calm 7.00 Overcast OVC007 68 68 100% 30.14 0.0
02 10:35 Calm 7.00 Overcast OVC007 68 66.2 94% 30.14 0.0
02 10:15 Calm 7.00 Overcast OVC007 68 66.2 94% 30.15 0.0
02 09:55 Calm 7.00 Overcast OVC007 68 66.2 94% 30.14 0.0
02 09:35 Calm 7.00 Overcast OVC007 68 66.2 94% 30.13 0.0
02 09:15 Calm 7.00 Overcast OVC007 68 66.2 94% 30.13 0.0
02 08:55 Calm 7.00 Overcast OVC005 68 66.2 94% 30.12 0.0
02 08:35 Calm 5.00 Fog/Mist OVC005 68 66.2 94% 30.12 0.0
02 08:15 Calm 5.00 Fog/Mist OVC005 68 66.2 94% 30.12 0.0
02 07:55 Calm 5.00 Fog/Mist OVC005 68 66.2 94% 30.11 0.0
02 07:35 Calm 5.00 Fog/Mist OVC005 68 66.2 94% 30.11 0.0
02 07:15 Calm 5.00 Fog/Mist OVC005 68 66.2 94% 30.11 0.0
02 06:55 Calm 7.00 Overcast OVC005 68 66.2 94% 30.1 0.0
02 06:35 Calm 5.00 Fog/Mist OVC005 68 68 100% 30.1 0.0
02 06:15 Calm 4.00 Fog/Mist OVC005 69.8 68 94% 30.1 0.0
02 05:55 Calm 4.00 Fog/Mist OVC005 69.8 68 94% 30.09 0.0
02 05:35 SE 5 2.50 Fog/Mist OVC005 69.8 68 94% 30.09 0.0
02 05:15 Calm 2.00 Light Rain OVC005 69.8 68 94% 30.08 0.0
02 04:55 Calm 2.50 Fog/Mist OVC007 69.8 68 94% 30.08 0.0
02 04:35 Calm 4.00 Fog/Mist OVC009 69.8 68 94% 30.07 0.0
02 04:15 Calm 4.00 Fog/Mist OVC009 69.8 68 94% 30.07 0.0
02 03:55 Calm 5.00 Fog/Mist OVC011 69.8 68 94% 30.06 0.0
02 03:35 Calm 4.00 Fog/Mist OVC011 69.8 68 94% 30.06 0.0
02 03:15 Calm 4.00 Fog/Mist OVC011 69.8 68 94% 30.06 0.0
02 02:55 Calm 5.00 Fog/Mist OVC013 69.8 68 94% 30.06 0.0
02 02:35 Calm 5.00 Fog/Mist OVC013 69.8 68 94% 30.06 0.0
02 02:15 Calm 4.00 Fog/Mist BKN015 OVC020 69.8 68 94% 30.07 0.0
02 01:55 Calm 5.00 Fog/Mist OVC020 69.8 68 94% 30.08 0.0
02 01:35 Calm 4.00 Fog/Mist BKN018 OVC046 69.8 68 94% 30.08 0.0
02 01:15 Calm 5.00 Fog/Mist BKN014 OVC022 69.8 68 94% 30.08 0.0
02 00:55 Calm 4.00 Fog/Mist OVC016 69.8 68 94% 30.07 0.0
02 00:35 Calm 5.00 Fog/Mist BKN016 BKN026 OVC070 69.8 68 94% 30.07 0.0
02 00:15 Calm 5.00 Fog/Mist SCT007 BKN070 OVC085 69.8 68 94% 30.07 0.0
01 23:55 Calm 4.00 Fog/Mist BKN003 BKN075 69.8 68 94% 30.06 0.0
01 23:35 Calm 4.00 Fog/Mist BKN001 OVC075 69.8 68 94% 30.04 0.0
01 23:15 Calm 1.00 Fog/Mist OVC001 69.8 68 94% 30.03 0.0
01 22:55 Calm 2.00 Fog/Mist CLR 69.8 68 94% 30.03 0.0
01 22:35 Calm 2.50 Fog/Mist CLR 69.8 68 94% 30.01 0.0
01 22:15 Calm 1.75 Fog/Mist VV007 69.8 68 94% 30 0.0
01 21:55 Calm 4.00 Fog/Mist CLR 69.8 68 94% 30 0.0
01 21:35 Calm 5.00 Light Rain SCT027 SCT042 SCT060 69.8 69.8 100% 29.98 0.0
01 21:15 Calm 4.00 Fog/Mist SCT090 69.8 69.8 100% 30 0.0
01 20:55 Calm 5.00 Fog/Mist CLR 69.8 69.8 100% 30.02 0.0
01 20:35 Calm 7.00 Partly Cloudy SCT042 SCT065 71.6 69.8 94% 30 0.0
01 20:15 Calm 10.00 Thunderstorm in Vicinity SCT034 OVC042 71.6 69.8 94% 29.99 0.0
01 19:55 Calm 7.00 Mostly Cloudy BKN035 71.6 69.8 94% 29.99 0.0
01 19:35 Calm 7.00 Thunderstorm SCT036 SCT120 71.6 69.8 94% 29.97 0.0
01 19:15 Calm 10.00 Thunderstorm in Vicinity SCT038 SCT047 SCT075 71.6 69.8 94% 29.96 0.0
01 18:55 Calm 2.50 Thunderstorm Light Rain in Vicinity SCT015 SCT039 BKN085 73.4 68 83% 29.96 0.0
01 18:35 N 8 10.00 Thunderstorm in Vicinity SCT045 SCT060 BKN080 78.8 73.4 84% 82 29.96 0.0
01 18:15 Calm 10.00 Partly Cloudy SCT070 SCT090 78.8 77 94% 83 29.94 0.0
01 17:55 Calm 10.00 Thunderstorm in Vicinity SCT070 80.6 75.2 84% 86 29.94 0.0
01 17:35 Calm 10.00 Fair CLR 84.2 73.4 70% 91 29.94 0.0
01 17:15 Calm 10.00 Partly Cloudy SCT046 SCT050 86 73.4 66% 93 29.95 0.0
01 16:55 Calm 10.00 Partly Cloudy SCT046 SCT060 SCT070 87.8 71.6 59% 94 29.93 0.0
01 16:35 NW 3 10.00 Partly Cloudy SCT045 SCT070 87.8 71.6 59% 94 29.94 0.0
01 16:15 NW 6 10.00 Fair CLR 87.8 71.6 59% 94 29.95 0.0
01 15:55 W 6 10.00 Fair CLR 87.8 71.6 59% 94 29.95 0.0
01 15:35 NW 5 10.00 Partly Cloudy SCT070 87.8 71.6 59% 94 29.95 0.0
01 15:15 Calm 10.00 Overcast SCT041 SCT048 OVC070 86 71.6 62% 92 29.97 0.0
01 14:55 NW 6 10.00 Mostly Cloudy SCT055 BKN065 BKN080 87.8 71.6 59% 94 29.96 0.0
01 14:35 W 6 10.00 Mostly Cloudy SCT049 BKN065 BKN075 87.8 73.4 62% 96 29.96 0.0
01 14:15 Calm 10.00 Mostly Cloudy BKN048 BKN065 86 73.4 66% 93 29.97 0.0
01 13:55 Calm 10.00 Mostly Cloudy SCT037 SCT043 BKN048 86 71.6 62% 92 29.96 0.0
01 13:35 Calm 10.00 Mostly Cloudy SCT034 SCT043 BKN070 84.2 73.4 70% 91 29.97 0.0
01 13:15 S 3 10.00 Mostly Cloudy BKN036 BKN041 BKN070 84.2 71.6 66% 90 29.98 0.0
01 12:55 Calm 10.00 Partly Cloudy SCT037 SCT043 SCT070 82.4 71.6 70% 87 29.98 0.0
01 12:35 S 3 10.00 Fair CLR 80.6 71.6 74% 85 29.99 0.0
01 12:15 Calm 10.00 Partly Cloudy SCT095 78.8 71.6 79% 82 30 0.0
01 11:55 Calm 10.00 Overcast OVC095 78.8 71.6 79% 82 30 0.0
01 11:35 Calm 10.00 Mostly Cloudy BKN095 BKN120 77 71.6 83% 78 30.01 0.0
01 11:15 Calm 10.00 Mostly Cloudy BKN095 77 71.6 83% 78 30.01 0.0
01 10:55 Calm 10.00 Mostly Cloudy BKN095 75.2 71.6 89% 75 30 0.0
01 10:35 Calm 10.00 Mostly Cloudy BKN095 73.4 71.6 94% 30.01 0.0
01 10:19 Calm 10.00 Partly Cloudy SCT095 SCT120 73.4 71.6 94% 30.01 0.0
01 09:55 Calm 10.00 Mostly Cloudy BKN100 73.4 71.6 94% 30.01 0.0
01 09:35 Calm 7.00 Overcast OVC110 71.6 69.8 94% 30.01 0.0
01 09:15 Calm 7.00 Mostly Cloudy BKN110 71.6 69.8 94% 30.01 0.0
01 08:55 Calm 7.00 Fair CLR 69.8 68 94% 30.02 0.0
01 08:35 Calm 5.00 Fog/Mist SCT100 69.8 68 94% 30.02 0.0
01 08:15 Calm 5.00 Fog/Mist SCT003 BKN100 SCT120 68 66.2 94% 30.03 0.0
01 07:55 Calm 4.00 Fog/Mist OVC003 68 64.4 88% 30.03 0.0
01 07:35 Calm 1.00 Fog/Mist OVC003 66.2 64.4 94% 30.02 0.0
01 07:15 Calm 1.75 Fog/Mist BKN003 BKN013 OVC100 66.2 64.4 94% 30.02 0.0
01 06:55 Calm 1.75 Light Rain OVC003 66.2 64.4 94% 30.02 0.0
01 06:35 Calm 2.00 Fog/Mist OVC003 64.4 64.4 100% 30.03 0.0
01 06:15 Calm 0.50 Fog OVC003 66.2 64.4 94% 30.03 0.0
01 05:55 Calm 0.50 Light Rain OVC003 64.4 64.4 100% 30.03 0.0
01 05:35 Calm 1.25 Fog/Mist OVC003 64.4 62.6 94% 30.03 0.0
01 05:15 Calm 0.50 Fog OVC003 64.4 62.6 94% 30.03 0.0
01 04:55 Calm 1.00 Fog/Mist OVC003 64.4 62.6 94% 30.03 0.0
01 04:35 Calm 0.50 Fog OVC003 64.4 64.4 100% 30.03 0.0
01 04:15 Calm 0.75 Fog/Mist OVC003 66.2 64.4 94% 30.04 0.0
01 03:55 Calm 1.00 Fog/Mist OVC003 64.4 64.4 100% 30.04 0.0
01 03:35 Calm 0.50 Fog OVC003 64.4 64.4 100% 30.04 0.0
01 03:15 Calm 0.50 Fog OVC001 64.4 62.6 94% 30.04 0.0
01 02:55 Calm 0.25 Fog OVC001 64.4 64.4 100% 30.05 0.0
01 02:35 Calm 0.75 Fog/Mist OVC001 66.2 64.4 94% 30.05 0.0
01 02:15 Calm 1.25 Fog/Mist OVC001 66.2 64.4 94% 30.06 0.0
01 01:55 Calm 2.50 Fog/Mist BKN001 BKN075 OVC120 66.2 64.4 94% 30.06 0.0
01 01:35 Calm 2.50 Fog/Mist SCT001 BKN085 OVC110 66.2 64.4 94% 30.06 0.0
01 01:15 Calm 3.00 Fog/Mist OVC110 68 64.4 88% 30.07 0.0
01 00:55 Calm 1.75 Fog/Mist SCT001 SCT100 OVC120 66.2 64.4 94% 30.07 0.0
01 00:35 Calm 4.00 Fog/Mist SCT120 66.2 64.4 94% 30.07 0.0
01 00:15 Calm 4.00 Fog/Mist BKN120 68 64.4 88% 30.07 0.0
31 23:55 Calm 3.00 Fog/Mist SCT120 68 64.4 88% 30.07 0.0
31 23:35 Calm 4.00 Fog/Mist SCT110 68 64.4 88% 30.08 0.0
31 23:15 Calm 4.00 Fog/Mist SCT028 SCT033 OVC110 68 66.2 94% 30.08 0.0
31 22:55 Calm 4.00 Fog/Mist OVC031 68 66.2 94% 30.09 0.0
31 22:35 Calm 4.00 Fog/Mist SCT006 BKN033 OVC095 68 66.2 94% 30.1 0.0
31 22:15 Calm 5.00 Rain SCT035 BKN065 OVC095 68 66.2 94% 30.1 0.0
31 21:55 Calm 5.00 Fog/Mist SCT031 SCT035 OVC075 68 64.4 88% 30.1 0.0
31 21:35 Calm 5.00 Fog/Mist BKN001 BKN029 OVC075 68 64.4 88% 30.09 0.0
31 21:15 Calm 4.00 Fog/Mist BKN001 OVC075 66.2 64.4 94% 30.09 0.0
31 20:55 Calm 3.00 Fog/Mist BKN001 OVC085 68 64.4 88% 30.08 0.0
31 20:35 Calm 3.00 Fog/Mist SCT001 BKN090 BKN120 68 66.2 94% 30.08 0.0
31 20:15 Calm 3.00 Fog/Mist SCT080 SCT120 68 66.2 94% 30.08 0.0
31 19:35 Calm 7.00 Partly Cloudy SCT090 69.8 68 94% 30.08 0.0
31 19:15 Calm 10.00 Partly Cloudy SCT070 71.6 69.8 94% 30.08 0.0
31 18:55 Calm 10.00 Mostly Cloudy BKN070 BKN085 BKN120 71.6 69.8 94% 30.09 0.0
31 18:35 Calm 10.00 Mostly Cloudy SCT085 BKN110 71.6 69.8 94% 30.09 0.0
31 18:15 Calm 10.00 Overcast OVC095 71.6 69.8 94% 30.1 0.0
31 17:55 Calm 10.00 Overcast SCT021 OVC095 71.6 68 88% 30.09 0.0
31 17:35 Calm 10.00 Overcast SCT021 BKN080 OVC100 71.6 68 88% 30.1 0.0
31 17:15 Calm 10.00 Light Rain OVC090 71.6 68 88% 30.1 0.0
31 16:55 Calm 10.00 Overcast OVC100 71.6 68 88% 30.11 0.0
31 16:35 Calm 10.00 Overcast OVC090 71.6 68 88% 30.1 0.0
31 16:15 Calm 10.00 Overcast SCT048 BKN080 OVC090 71.6 69.8 94% 30.11 0.0
31 15:55 Calm 5.00 Rain SCT050 BKN060 OVC070 71.6 68 88% 30.11 0.0
31 15:35 Calm 10.00 Light Drizzle SCT016 BKN050 OVC085 73.4 66.2 78% 30.13 0.0
31 15:15 Calm 10.00 Mostly Cloudy SCT016 SCT055 BKN085 73.4 66.2 78% 30.13 0.0
31 14:55 Calm 10.00 Light Rain SCT030 SCT036 BKN055 73.4 66.2 78% 30.14 0.0
31 14:35 Calm 10.00 Light Rain SCT031 SCT037 BKN045 73.4 66.2 78% 30.15 0.0
31 14:15 Calm 10.00 Light Rain SCT034 SCT050 OVC060 73.4 64.4 74% 30.15 0.0
31 13:55 Calm 7.00 Light Rain SCT050 OVC060 71.6 64.4 78% 30.15 0.0
31 13:35 Calm 10.00 Overcast OVC050 73.4 64.4 74% 30.15 0.0
31 13:15 Calm 10.00 Overcast SCT060 OVC080 73.4 64.4 74% 30.15 0.0
31 12:55 Calm 10.00 Overcast SCT070 OVC080 75.2 62.6 65% 77 30.15 0.0
31 12:35 Calm 10.00 Overcast SCT060 OVC075 73.4 62.6 69% 30.15 0.0
31 12:15 Calm 10.00 Overcast SCT045 BKN060 OVC075 73.4 64.4 74% 30.15 0.0
31 11:55 Calm 10.00 Overcast OVC043 71.6 62.6 73% 30.16 0.0
31 11:35 Calm 10.00 Overcast BKN045 OVC050 71.6 62.6 73% 30.17 0.0
31 11:15 Calm 10.00 Overcast BKN050 OVC065 69.8 62.6 78% 30.17 0.0
31 10:55 Calm 10.00 Overcast OVC055 69.8 62.6 78% 30.17 0.0
31 10:35 Calm 10.00 Overcast OVC065 69.8 64.4 83% 30.17 0.0
31 10:15 Calm 10.00 Overcast BKN065 OVC085 69.8 62.6 78% 30.17 0.0
31 09:55 Calm 10.00 Overcast SCT050 BKN065 OVC085 69.8 62.6 78% 30.16 0.0
31 09:35 Calm 10.00 Overcast BKN050 OVC065 69.8 62.6 78% 30.17 0.0
31 09:15 Calm 10.00 Overcast BKN049 OVC055 69.8 62.6 78% 30.16 0.0
31 08:55 Calm 10.00 Overcast SCT046 OVC055 68 64.4 88% 30.16 0.0
31 08:35 Calm 10.00 Overcast OVC055 68 64.4 88% 30.16 0.0
31 08:15 Calm 10.00 Overcast BKN035 OVC055 68 64.4 88% 30.16 0.0
31 07:55 Calm 10.00 Overcast SCT035 BKN075 OVC110 68 64.4 88% 30.16 0.0
31 07:35 Calm 10.00 Overcast SCT075 OVC120 64.4 64.4 100% 30.15 0.0
31 07:15 Calm 7.00 Overcast SCT075 OVC120 64.4 62.6 94% 30.15 0.0
31 06:55 Calm 7.00 Partly Cloudy SCT120 64.4 62.6 94% 30.14 0.0
31 06:35 Calm 10.00 Fair CLR 64.4 62.6 94% 30.14 0.0
31 06:15 Calm 7.00 Mostly Cloudy SCT080 BKN120 64.4 62.6 94% 30.13 0.0
31 05:55 Calm 7.00 Overcast OVC080 64.4 62.6 94% 30.14 0.0
31 05:35 Calm 5.00 Fog/Mist SCT080 SCT120 64.4 62.6 94% 30.13 0.0
31 05:15 Calm 5.00 Fog/Mist SCT120 64.4 62.6 94% 30.13 0.0
31 04:55 Calm 7.00 Fair CLR 64.4 62.6 94% 30.12 0.0
31 04:35 Calm 7.00 Partly Cloudy SCT095 64.4 62.6 94% 30.12 0.0
31 04:15 Calm 10.00 Mostly Cloudy SCT075 BKN095 66.2 64.4 94% 30.13 0.0
31 03:55 Calm 10.00 Overcast SCT013 OVC075 68 64.4 88% 30.12 0.0
31 03:35 Calm 10.00 Overcast SCT013 SCT060 OVC075 68 64.4 88% 30.12 0.0
Date Time (edt) Wind (mph) Vis. (mi.) Weather Sky Cond. Air Dwpt Max. Min. Relative Humidity Wind Chill (°F) Heat Index (°F) altimeter (in) sea level (mb) 1 hr 3 hr 6 hr
6 hour
Temperature (ºF) Pressure Precipitation (in)